577  
ASUS43 KLOT 160659  
RWRIL  
 
ILLINOIS REGIONAL WEATHER ROUNDUP  
NATIONAL WEATHER SERVICE CHICAGO/ROMEOVILLE IL  
200 AM CDT THU AUG 16 2018  
 
NOTE: "FAIR" INDICATES FEW OR NO CLOUDS BELOW 12,000 FEET WITH NO  
SIGNIFICANT WEATHER AND/OR S TO VISIBILITY
.  
 
* THESE STATIONS ARE NOT UNDER NWS QUALITY CONTROL. THEY ALSO MAY NOT  
REPORT WEATHER SUCH AS PRECIPITATION OR FOG.
 
 
ILZ001-002-007-009-015-016-024-160800-  
NORTHWEST ILLINOIS  
 
CITY SKY/WX TMP DP RH WIND PRES REMARKS
 
MOLINE MOCLDY 72 70 93 E6 29.89F  

 
 
ILZ003-004-008-010-011-017-018-160800-  
NORTH CENTRAL ILLINOIS  
 
CITY SKY/WX TMP DP RH WIND PRES REMARKS
 
ROCKFORD NOT AVBL  

 
 
ILZ005-006-012>014-019>023-160800-  
NORTHEAST ILLINOIS  
 
CITY SKY/WX TMP DP RH WIND PRES REMARKS
 
CHICAGO-OHARE MOCLDY 72 68 87 SE3 29.91F  
CHICAGO-MIDWAY NOT AVBL  
AURORA CLOUDY 71 69 93 SE3 29.92S  
WAUKEGAN NOT AVBL  
DUPAGE AIRPORT MOCLDY 70 69 97 CALM 29.92S  
WHEELING CLOUDY 72 68 87 CALM 29.93F  
NORTHERLY ISL N/A 72 67 84 E6 N/A  

 
 
LMZ740>746-160800-  
SOUTHERN LAKE MICHIGAN  
 
STATION/POSITION SKY/WX TEMP WIND PRES VSBY WAVE
 
AIR SEA DIR/SP/G HT/PER  
(F) (DEG/KT/KT) (MB) (MI) (FT/S)  
SOUTHERN BUOY 75 77 170/ 12/ 14 1013.7S 3/ 5  
WINTHROP HARBOR 75 75 N/A 1/ 4  
WAUKEGAN HARBOR 75 76 190/ 4 N/A 1/ 4  
WILMETTE HARBOR 74 77 140/ 8/ 10 N/A 1/ 4  
HARRISON CRIB 74 170/ 4/ 5 N/A  
NORTHERLY ISL 72 110/ 2/ 6 N/A  
CALUMET HARBOR 72 140/ 2/ 5 1012.9  
BURNS HARBOR 73 1013.9F  
MICHIGAN CITY 71 120/ 7/ 8 N/A  
MICHIGAN CITY 6N 72 77 150/ 8/ 10 N/A 1  
ST. JOSEPH 72 77 130/ 8/ 10 1013.8F 1/ 3  

 
 
ILZ025>027-034>036-040-047-049-050-058-095>099-160800-  
WEST-CENTRAL ILLINOIS  
 
CITY SKY/WX TMP DP RH WIND PRES REMARKS
 

 
 
ILZ028>032-037-038-041>044-048-051>054-059>061-160800-  
CENTRAL ILLINOIS  
 
CITY SKY/WX TMP DP RH WIND PRES REMARKS
 
PEORIA MOCLDY 73 72 94 SE3 29.91S  
SPRINGFIELD CLOUDY 73 73 100 SW3 29.91S  
TAYLORVILLE NOT AVBL  

 
 
ILZ033-039-045-046-055>057-062-063-160800-  
EAST-CENTRAL ILLINOIS  
 
CITY SKY/WX TMP DP RH WIND PRES REMARKS
 

 
 
ILZ079-100>102-160800-  
SOUTHWEST ILLINOIS  
 
CITY SKY/WX TMP DP RH WIND PRES REMARKS
 

 
 
ILZ064>066-069>071-074>076-080>082-084>086-088>090-092>094-160800-  
SOUTH-CENTRAL ILLINOIS  
 
CITY SKY/WX TMP DP RH WIND PRES REMARKS
 
CARBONDALE NOT AVBL  

 
 
ILZ067-068-072-073-078-083-087-091-160800-  
SOUTHEAST ILLINOIS  
 
CITY SKY/WX TMP DP RH WIND PRES REMARKS
 

 
 
ABBREVIATIONS USED IN REMARKS  
TC - TEMPERATURE IN CELSIUS  
WCI - WIND CHILL INDEX  
HX - HEAT INDEX  
VSB - VISIBILITY  

 
 
 
 
CLICK HERE TO GO TO PREVIOUS BULLETINS.

The Nexlab IL Page Main Text Page